This demonstration page uses our WeatherBlox Daily Observations layout. Learn more.

Left ArrowRight Arrow

36.17497, -115.13722

Hourly Observations for April 22, 2020

Temp ( °F °C ) Dew Point ( °F °C ) Humidity (%) Winds ( mph kmh ) Pressure ( in mb ) Visibility ( mi km ) Precip ( " mm )
12:53 am 00:53 Clear 66 18.9 36 2.2 33 33 NW 6 9 30.06 1018 10 16 N/A
1:53 am 01:53 Clear 67 19.4 38 3.3 35 35 NNW 5 7 30.04 1017 10 16 N/A
2:53 am 02:53 Clear 64 17.8 40 4.4 41 41 NNE 9 15 30.05 1018 10 16 N/A
3:53 am 03:53 Clear 63 17.2 40 4.4 43 43 NNW 9 15 30.06 1018 10 16 N/A
4:53 am 04:53 Clear 64 17.8 38 3.3 38 38 W 8 13 30.07 1018 10 16 N/A
5:53 am 05:53 Clear 63 17.2 39 3.9 41 41 NW 7 11 30.09 1019 10 16 N/A
6:53 am 06:53 Sunny 65 18.3 40 4.4 40 40 WNW 7 11 30.11 1020 10 16 N/A
7:53 am 07:53 Sunny 69 20.6 40 4.4 35 35 NNW 13 20 30.12 1020 10 16 N/A
8:53 am 08:53 Sunny 73 22.8 39 3.9 29 29 NNE 8 13 30.13 1020 10 16 N/A
9:53 am 09:53 Sunny 79 26.1 30 -1.1 17 17 N 12 19 30.11 1020 10 16 N/A
10:53 am 10:53 Sunny 81 27.2 29 -1.7 15 15 N 12 19 30.11 1020 10 16 N/A
11:53 am 11:53 Sunny 82 27.8 28 -2.2 14 14 undefined N/A 30.09 1019 10 16 N/A
12:53 pm 12:53 Sunny 85 29.4 25 -3.9 11 11 N 16 26 30.06 1018 10 16 N/A
1:53 pm 13:53 Sunny 86 30 27 -2.8 12 12 NNW 15 24 30.04 1017 10 16 N/A
2:53 pm 14:53 Sunny 88 31.1 28 -2.2 11 11 NW 12 19 30.02 1017 10 16 N/A
3:53 pm 15:53 Sunny 88 31.1 28 -2.2 11 11 NNW 17 28 29.99 1016 10 16 N/A
4:53 pm 16:53 Sunny 87 30.6 28 -2.2 12 12 NW 16 26 29.98 1015 10 16 N/A
5:53 pm 17:53 Sunny 87 30.6 28 -2.2 12 12 NNW 12 19 29.98 1015 10 16 N/A
6:53 pm 18:53 Sunny 86 30 29 -1.7 13 13 NNW 10 17 29.96 1014 10 16 N/A
7:53 pm 19:53 Clear 83 28.3 30 -1.1 15 15 NW 7 11 29.96 1015 10 16 N/A
8:53 pm 20:53 Clear 80 26.7 31 -0.6 17 17 W 5 7 29.98 1015 10 16 N/A
9:53 pm 21:53 Clear 77 25 33 0.6 20 20 NNW 3 6 29.99 1016 10 16 N/A
10:53 pm 22:53 Clear 72 22.2 33 0.6 24 24 NW 5 7 29.99 1016 10 16 N/A
11:53 pm 23:53 Clear 72 22.2 34 1.1 25 25 W 6 9 29.99 1016 10 16 N/A

Powered by AerisWeather